Showing default

SIT-HSE, 61763

Orbit data source: Space-Track

SIT-HSE, 61763 is a Commonwealth of Independent States-origin payload satellite in SSO that was launched on Mon, 04 Nov 2024 UTC via a SOYUZ-2-1B launch vehicle from the Vostochny Cosmodrome (VOSTO). Payload-class satellites include a variety of spacecraft equipped with specific instruments for various scientific and technological missions. These include communications satellites like Starlink; space stations such as the ISS; scientific satellites like the Hubble; Earth observation satellites from companies like Planet Labs, Umbra, and HawkEye 360; GPS; miniature CubeSats for education and research; and military/defense satellites.

Loading next visibility...
Identifier
61763, 2024-199AE
Orbit
SSO
Country
Flag of CISCIS
Related business
Manufacturer
Sputniks
Mission
Operational Amateur Technology
Bus & Motor
CUBESAT 3U, Unknown motor
Mass
3 kg wet, 3 kg dry
Launch date (UTC)
2024-11-04 (2 years ago)
Launch vehicle
SOYUZ-2-1B
Launch site
Vostochny Cosmodrome (VOSTO)
Object type
Payload
Rocket body
Debris
Shape & HBR
Box, 0.1 m
Radar Cross Section
0.035 m², Small (<0.1 m²)

Expand to show TLE details & history
Last TLE update: 6 hours ago

TLE from 6 hours ago
0 SIT-HSE
1 61763U 24199AE  26128.18377465  .00018168  00000-0  32342-3 0  9999
2 61763  97.3019   3.8579 0007020  85.7633 274.4420 15.50162810131385
Epoch: 2026-05-08T04:24Z
TLE epoch observation values (Epoch: 2026-05-08T04:24:38.129Z)
Latitude
-0.00013°
Longitude
71.67983°
Altitude
419.018 km
Speed
7.66 km/s
True Right ascension
00h 15m 25s
True Declination
0° 00' 00"
Sunlit
Object was in daylight at epoch
Visualization orbit readout
Latitude
Unknown
Longitude
Unknown
Altitude
Unknown
Speed
Unknown
Apparent Right ascension
Unknown
Apparent Declination
Unknown
Sunlit
N/A
Visualization observer readout
Local Sidereal Time
18:49:36
Azimuth
Unknown
Elevation
Unknown
Doppler factor
Unknown
Orbital elements
Apogee altitude
417.939 km
Perigee altitude
408.404 km
Semi-major axis
6,791.309 km
Eccentricity
0.0007
Inclination
97.3019°
RAAN
3.8579°
Arg. of periapsis
85.7633°
True anomaly
274.36179°
Mean anomaly
274.442°
Eccentric anomaly
274.4019°
Mean motion
3.87805 °/min
Orbital period
92.83 mins
BSTAR
0.00032342
Loading maneuver chart data...
Computing Atmospheric mass density...
Loading historical data...
Loading historical data...
Loading historical data...
Loading historical data...
Loading historical data...
Loading historical data...
Loading historical data...

Documentation

Showing up to 5 results
|